Time,TemperatureF,DewpointF,PressureIn,WindDirection,WindDirectionDegrees,WindSpeedMPH,WindSpeedGustMPH,Humidity,HourlyPrecipIn,Conditions,Clouds,dailyrainin,SoftwareType,DateUTC
2013-05-21 00:12:00,59.9,58.0,29.92,SSW,198,0.0,0.0,93,0.00,,,0.00,weatherlink.com 1.10,2013-05-21 04:12:00,
2013-05-21 00:27:00,59.5,58.0,29.92,SE,138,0.0,0.0,93,0.00,,,0.00,weatherlink.com 1.10,2013-05-21 04:27:00,
2013-05-21 00:42:00,59.0,57.0,29.91,ESE,102,0.0,3.0,93,0.00,,,0.00,weatherlink.com 1.10,2013-05-21 04:42:00,
2013-05-21 00:57:00,58.4,57.0,29.91,South,186,0.0,3.0,94,0.00,,,0.00,weatherlink.com 1.10,2013-05-21 04:57:00,
2013-05-21 01:12:00,58.1,56.0,29.91,SE,143,0.0,0.0,93,0.00,,,0.00,weatherlink.com 1.10,2013-05-21 05:12:00,
2013-05-21 01:27:00,57.7,56.0,29.91,SE,143,0.0,0.0,94,0.00,,,0.00,weatherlink.com 1.10,2013-05-21 05:27:00,
2013-05-21 01:42:00,57.2,56.0,29.90,ENE,77,0.0,0.0,94,0.00,,,0.00,weatherlink.com 1.10,2013-05-21 05:42:00,
2013-05-21 01:57:00,56.9,55.0,29.90,SE,130,0.0,0.0,94,0.00,,,0.00,weatherlink.com 1.10,2013-05-21 05:57:00,
2013-05-21 02:12:00,56.6,55.0,29.89,South,182,0.0,0.0,94,0.00,,,0.00,weatherlink.com 1.10,2013-05-21 06:12:00,
2013-05-21 02:27:00,56.2,55.0,29.89,SE,134,0.0,0.0,94,0.00,,,0.00,weatherlink.com 1.10,2013-05-21 06:27:00,
2013-05-21 02:42:00,55.8,54.0,29.89,ESE,116,0.0,0.0,94,0.00,,,0.00,weatherlink.com 1.10,2013-05-21 06:42:00,
2013-05-21 02:57:00,55.4,54.0,29.89,ESE,116,0.0,0.0,94,0.00,,,0.00,weatherlink.com 1.10,2013-05-21 06:57:00,
2013-05-21 03:12:00,55.2,54.0,29.88,ESE,116,0.0,0.0,94,0.00,,,0.00,weatherlink.com 1.10,2013-05-21 07:12:00,
2013-05-21 03:27:00,54.7,53.0,29.88,ESE,116,0.0,0.0,94,0.00,,,0.00,weatherlink.com 1.10,2013-05-21 07:27:00,
2013-05-21 03:42:00,54.5,53.0,29.89,ESE,116,0.0,0.0,95,0.00,,,0.00,weatherlink.com 1.10,2013-05-21 07:42:00,
2013-05-21 03:58:00,54.2,53.0,29.88,ESE,116,0.0,0.0,95,0.00,,,0.00,weatherlink.com 1.10,2013-05-21 07:58:00,
2013-05-21 04:13:00,53.9,52.0,29.89,ESE,116,0.0,0.0,94,0.00,,,0.00,weatherlink.com 1.10,2013-05-21 08:13:00,
2013-05-21 04:28:00,53.9,53.0,29.88,SE,126,1.0,2.0,95,0.00,,,0.00,weatherlink.com 1.10,2013-05-21 08:28:00,
2013-05-21 04:43:00,53.7,52.0,29.88,SE,124,0.0,2.0,95,0.00,,,0.00,weatherlink.com 1.10,2013-05-21 08:43:00,
2013-05-21 04:58:00,53.5,52.0,29.86,SE,133,0.0,1.0,95,0.00,,,0.00,weatherlink.com 1.10,2013-05-21 08:58:00,
2013-05-21 05:13:00,53.4,52.0,29.86,SE,132,1.0,2.0,95,0.00,,,0.00,weatherlink.com 1.10,2013-05-21 09:13:00,
2013-05-21 05:28:00,53.5,52.0,29.86,SE,133,0.0,2.0,95,0.00,,,0.00,weatherlink.com 1.10,2013-05-21 09:28:00,
2013-05-21 05:43:00,53.3,52.0,29.87,SE,132,1.0,3.0,95,0.00,,,0.00,weatherlink.com 1.10,2013-05-21 09:43:00,
2013-05-21 05:58:00,53.2,52.0,29.88,SE,132,0.0,1.0,95,0.00,,,0.00,weatherlink.com 1.10,2013-05-21 09:58:00,
2013-05-21 06:13:00,53.3,52.0,29.88,South,169,0.0,0.0,95,0.00,,,0.00,weatherlink.com 1.10,2013-05-21 10:13:00,
2013-05-21 06:28:00,53.7,53.0,29.88,South,169,0.0,0.0,96,0.00,,,0.00,weatherlink.com 1.10,2013-05-21 10:28:00,
2013-05-21 06:43:00,54.7,53.0,29.88,East,93,1.0,3.0,95,0.00,,,0.00,weatherlink.com 1.10,2013-05-21 10:43:00,
2013-05-21 06:58:00,55.9,55.0,29.88,East,96,5.0,5.0,95,0.00,,,0.00,weatherlink.com 1.10,2013-05-21 10:58:00,
2013-05-21 07:13:00,57.8,56.0,29.87,ENE,78,1.0,3.0,93,0.00,,,0.00,weatherlink.com 1.10,2013-05-21 11:13:00,
2013-05-21 07:28:00,59.5,57.0,29.87,East,101,1.0,5.0,92,0.00,,,0.00,weatherlink.com 1.10,2013-05-21 11:28:00,
2013-05-21 07:43:00,61.4,59.0,29.88,SE,132,0.0,3.0,91,0.00,,,0.00,weatherlink.com 1.10,2013-05-21 11:43:00,
2013-05-21 07:58:00,63.6,60.0,29.89,North,10,1.0,2.0,88,0.00,,,0.00,weatherlink.com 1.10,2013-05-21 11:58:00,
2013-05-21 08:13:00,65.9,61.0,29.88,South,171,2.0,3.0,85,0.00,,,0.00,weatherlink.com 1.10,2013-05-21 12:13:00,
2013-05-21 08:28:00,68.8,64.0,29.88,NNE,27,1.0,3.0,84,0.00,,,0.00,weatherlink.com 1.10,2013-05-21 12:28:00,
2013-05-21 08:43:00,73.2,66.0,29.88,North,350,1.0,7.0,77,0.00,,,0.00,weatherlink.com 1.10,2013-05-21 12:43:00,
2013-05-21 08:58:00,75.0,65.0,29.87,NW,323,0.0,8.0,72,0.00,,,0.00,weatherlink.com 1.10,2013-05-21 12:58:00,
2013-05-21 09:13:00,75.3,65.0,29.88,NNE,24,7.0,10.0,71,0.00,,,0.00,weatherlink.com 1.10,2013-05-21 13:13:00,
2013-05-21 09:28:00,75.7,66.0,29.87,NW,319,2.0,8.0,71,0.00,,,0.00,weatherlink.com 1.10,2013-05-21 13:28:00,
2013-05-21 09:43:00,76.9,66.0,29.86,West,281,4.0,9.0,68,0.00,,,0.00,weatherlink.com 1.10,2013-05-21 13:43:00,
2013-05-21 09:50:00,-999.0,-99.9,0.00,North,-999,-999.0,-999.0,-999,0.00,,,0.00,weatherlink.com 1.10,2013-05-21 13:50:00,
2013-05-21 10:03:00,-999.0,-99.9,29.87,North,-999,-999.0,-999.0,-999,0.00,,,0.00,weatherlink.com 1.10,2013-05-21 14:03:00,
2013-05-21 10:18:00,77.6,65.0,29.86,West,264,2.0,8.0,65,0.00,,,0.00,weatherlink.com 1.10,2013-05-21 14:18:00,
2013-05-21 10:33:00,77.4,65.0,29.86,NNW,334,3.0,10.0,66,0.00,,,0.00,weatherlink.com 1.10,2013-05-21 14:33:00,
2013-05-21 10:48:00,78.5,65.0,29.85,WNW,292,2.0,11.0,63,0.00,,,0.00,weatherlink.com 1.10,2013-05-21 14:48:00,
2013-05-21 11:03:00,79.7,65.0,29.84,ESE,119,3.0,9.0,61,0.00,,,0.00,weatherlink.com 1.10,2013-05-21 15:03:00,
2013-05-21 11:18:00,79.2,65.0,29.84,NNW,337,1.0,8.0,62,0.00,,,0.00,weatherlink.com 1.10,2013-05-21 15:18:00,
2013-05-21 11:33:00,79.3,65.0,29.84,WNW,303,3.0,7.0,62,0.00,,,0.00,weatherlink.com 1.10,2013-05-21 15:33:00,
2013-05-21 11:48:00,81.1,64.0,29.83,NNW,333,3.0,7.0,57,0.00,,,0.00,weatherlink.com 1.10,2013-05-21 15:48:00,
2013-05-21 12:03:00,82.5,65.0,29.83,NNW,340,2.0,10.0,55,0.00,,,0.00,weatherlink.com 1.10,2013-05-21 16:03:00,
2013-05-21 12:18:00,83.2,65.0,29.82,West,259,2.0,6.0,54,0.00,,,0.00,weatherlink.com 1.10,2013-05-21 16:18:00,
2013-05-21 12:33:00,83.7,63.0,29.82,NNW,342,1.0,8.0,50,0.00,,,0.00,weatherlink.com 1.10,2013-05-21 16:33:00,
2013-05-21 12:48:00,83.7,62.0,29.81,ENE,65,0.0,8.0,48,0.00,,,0.00,weatherlink.com 1.10,2013-05-21 16:48:00,
2013-05-21 13:03:00,83.9,60.0,29.81,North,349,5.0,7.0,45,0.00,,,0.00,weatherlink.com 1.10,2013-05-21 17:03:00,
2013-05-21 13:18:00,86.2,60.0,29.80,WNW,290,1.0,9.0,42,0.00,,,0.00,weatherlink.com 1.10,2013-05-21 17:18:00,
2013-05-21 13:33:00,85.9,61.0,29.80,West,262,3.0,8.0,43,0.00,,,0.00,weatherlink.com 1.10,2013-05-21 17:33:00,
2013-05-21 13:48:00,85.5,60.0,29.79,WNW,289,2.0,7.0,43,0.00,,,0.00,weatherlink.com 1.10,2013-05-21 17:48:00,
2013-05-21 14:03:00,85.6,60.0,29.79,ENE,63,2.0,11.0,42,0.00,,,0.00,weatherlink.com 1.10,2013-05-21 18:03:00,
2013-05-21 14:19:00,86.0,60.0,29.79,NNE,23,6.0,8.0,41,0.00,,,0.00,weatherlink.com 1.10,2013-05-21 18:19:00,
2013-05-21 14:34:00,85.3,60.0,29.79,NNE,24,3.0,6.0,43,0.00,,,0.00,weatherlink.com 1.10,2013-05-21 18:34:00,
2013-05-21 14:49:00,84.9,59.0,29.78,WSW,254,6.0,12.0,42,0.00,,,0.00,weatherlink.com 1.10,2013-05-21 18:49:00,
2013-05-21 15:04:00,86.1,59.0,29.78,NNW,346,6.0,13.0,40,0.00,,,0.00,weatherlink.com 1.10,2013-05-21 19:04:00,
2013-05-21 15:19:00,87.7,58.0,29.77,WNW,292,3.0,12.0,37,0.00,,,0.00,weatherlink.com 1.10,2013-05-21 19:19:00,
2013-05-21 15:34:00,88.5,58.0,29.75,WNW,283,4.0,9.0,36,0.00,,,0.00,weatherlink.com 1.10,2013-05-21 19:34:00,
2013-05-21 15:49:00,88.5,60.0,29.75,SE,140,6.0,12.0,38,0.00,,,0.00,weatherlink.com 1.10,2013-05-21 19:49:00,
2013-05-21 16:04:00,88.4,58.0,29.75,WNW,294,0.0,9.0,36,0.00,,,0.00,weatherlink.com 1.10,2013-05-21 20:04:00,
2013-05-21 16:19:00,86.8,59.0,29.75,NNW,327,1.0,5.0,39,0.00,,,0.00,weatherlink.com 1.10,2013-05-21 20:19:00,
2013-05-21 16:34:00,88.7,58.0,29.74,NNW,343,2.0,5.0,36,0.00,,,0.00,weatherlink.com 1.10,2013-05-21 20:34:00,
2013-05-21 16:49:00,87.9,59.0,29.75,West,274,5.0,7.0,38,0.00,,,0.00,weatherlink.com 1.10,2013-05-21 20:49:00,
2013-05-21 17:04:00,86.1,59.0,29.75,WNW,296,3.0,10.0,40,0.00,,,0.00,weatherlink.com 1.10,2013-05-21 21:04:00,
2013-05-21 17:19:00,85.8,60.0,29.75,WSW,250,4.0,10.0,42,0.00,,,0.00,weatherlink.com 1.10,2013-05-21 21:19:00,
2013-05-21 17:34:00,87.0,61.0,29.75,SE,136,0.0,8.0,41,0.00,,,0.00,weatherlink.com 1.10,2013-05-21 21:34:00,
2013-05-21 17:49:00,86.6,60.0,29.74,SW,223,4.0,12.0,40,0.00,,,0.00,weatherlink.com 1.10,2013-05-21 21:49:00,
2013-05-21 18:04:00,86.2,60.0,29.75,West,279,2.0,8.0,41,0.00,,,0.00,weatherlink.com 1.10,2013-05-21 22:04:00,
2013-05-21 18:19:00,85.6,60.0,29.74,NNE,19,0.0,2.0,42,0.00,,,0.00,weatherlink.com 1.10,2013-05-21 22:19:00,
2013-05-21 18:34:00,84.4,61.0,29.73,WSW,246,0.0,6.0,46,0.00,,,0.00,weatherlink.com 1.10,2013-05-21 22:34:00,
2013-05-21 18:49:00,83.4,63.0,29.74,SE,144,2.0,6.0,51,0.00,,,0.00,weatherlink.com 1.10,2013-05-21 22:49:00,
2013-05-21 19:04:00,81.8,65.0,29.75,East,86,2.0,3.0,56,0.00,,,0.00,weatherlink.com 1.10,2013-05-21 23:04:00,
2013-05-21 19:19:00,80.6,66.0,29.74,SE,128,3.0,6.0,61,0.00,,,0.00,weatherlink.com 1.10,2013-05-21 23:19:00,
2013-05-21 19:34:00,79.8,66.0,29.74,SE,132,1.0,5.0,63,0.00,,,0.00,weatherlink.com 1.10,2013-05-21 23:34:00,
2013-05-21 19:49:00,78.7,66.0,29.75,South,170,1.0,5.0,65,0.00,,,0.00,weatherlink.com 1.10,2013-05-21 23:49:00,
2013-05-21 20:04:00,77.4,66.0,29.75,SE,138,0.0,3.0,68,0.00,,,0.00,weatherlink.com 1.10,2013-05-22 00:04:00,
2013-05-21 20:19:00,76.4,66.0,29.75,South,184,1.0,3.0,70,0.00,,,0.00,weatherlink.com 1.10,2013-05-22 00:19:00,
2013-05-21 20:34:00,75.5,66.0,29.75,ESE,119,0.0,5.0,72,0.00,,,0.00,weatherlink.com 1.10,2013-05-22 00:34:00,
2013-05-21 20:49:00,75.8,66.0,29.75,South,179,2.0,8.0,72,0.00,,,0.00,weatherlink.com 1.10,2013-05-22 00:49:00,
2013-05-21 21:04:00,76.9,66.0,29.74,SW,236,1.0,10.0,70,0.00,,,0.00,weatherlink.com 1.10,2013-05-22 01:04:00,
2013-05-21 21:19:00,76.6,66.0,29.73,SSW,196,3.0,8.0,70,0.00,,,0.00,weatherlink.com 1.10,2013-05-22 01:19:00,
2013-05-21 21:34:00,76.1,66.0,29.73,SE,138,2.0,5.0,71,0.00,,,0.00,weatherlink.com 1.10,2013-05-22 01:34:00,
2013-05-21 21:49:00,75.5,66.0,29.73,ESE,103,1.0,10.0,72,0.00,,,0.00,weatherlink.com 1.10,2013-05-22 01:49:00,
2013-05-21 22:04:00,75.3,66.0,29.74,SSE,157,1.0,6.0,73,0.00,,,0.00,weatherlink.com 1.10,2013-05-22 02:04:00,
2013-05-21 22:19:00,74.1,66.0,29.74,ENE,65,4.0,4.0,75,0.00,,,0.00,weatherlink.com 1.10,2013-05-22 02:19:00,
2013-05-21 22:34:00,74.3,66.0,29.74,NE,39,0.0,7.0,75,0.00,,,0.00,weatherlink.com 1.10,2013-05-22 02:34:00,
2013-05-21 22:49:00,74.5,66.0,29.74,SSW,210,5.0,14.0,74,0.00,,,0.00,weatherlink.com 1.10,2013-05-22 02:49:00,
2013-05-21 23:04:00,75.7,66.0,29.74,WSW,254,0.0,12.0,71,0.00,,,0.00,weatherlink.com 1.10,2013-05-22 03:04:00,
2013-05-21 23:19:00,75.7,65.0,29.74,WSW,243,5.0,10.0,70,0.00,,,0.00,weatherlink.com 1.10,2013-05-22 03:19:00,
2013-05-21 23:34:00,75.6,65.0,29.74,East,81,0.0,3.0,70,0.00,,,0.00,weatherlink.com 1.10,2013-05-22 03:34:00,
2013-05-21 23:49:00,75.4,65.0,29.74,SSW,200,1.0,3.0,71,0.00,,,0.00,weatherlink.com 1.10,2013-05-22 03:49:00,